Regional Weather Roundup
Issued by NWS Wakefield, VA

Home | Current Version | Previous Version | Graphics & Text | Print | Product List | Glossary On
Versions: 1 2 3 4 5 6 7 8 9 10 11 12 13 14 15 16 17 18 19 20 21 22 23 24 25 26 27
000
ASUS41 KAKQ 240410
RWRAKQ

REGIONAL WEATHER ROUNDUP
NATIONAL WEATHER SERVICE WAKEFIELD VA
1200 AM EDT THU APR 24 2014

Note: "fair" indicates few or no clouds below 12,000 feet with no
significant weather and/or obstructions to visibility. * = Denotes
station may not report precipitation (e.g., rain,snow,etc.),
thunder or fog.

VAZ042-051-052>054-056-240500-
NORTHERN VIRGINIA

CITY           SKY/WX    TMP DP  RH WIND       PRES   REMARKS
WASH NATIONAL  CLEAR     50  30  46 NW9       30.00S
DULLES         CLEAR     47  28  47 NW18      30.01R
FORT BELVOIR   CLEAR     50  28  43 NW14      30.01R
QUANTICO       CLEAR     51  28  41 NW12G23   30.02R
FREDERICKSBRG* CLEAR     52  33  47 N8G17     30.01R
STAFFORD*      CLEAR     49  34  56 NW13      30.05R
WARRENTON      CLEAR     49  37  62 NW18      30.00S
CULPEPER*      CLEAR     52  28  40 N12       30.02S
MANASSAS*      CLEAR     48  30  49 NW13G22   30.02R
LEESBURG*      CLEAR     46  32  57 NW15G24   30.01R
WINCHESTER     CLEAR     45  30  57 NW10      30.03S
$$

VAZ048-049-060>072-079>083-240500-
CENTRAL AND SOUTH CENTRAL VIRGINIA...AND NORTH CENTRAL NORTH CAROLINA

CITY           SKY/WX    TMP DP  RH WIND       PRES   REMARKS
RICHMOND       CLEAR     50  32  50 NW8       29.99R
CHESTERFIELD*  CLEAR     54  27  35 N6        30.01R
HANOVER        CLEAR     47  34  60 CALM      30.02R
TAPPAHANNOCK*  CLEAR     52  29  40 NW8       29.99R
CHARLOTTSVILLE CLEAR     51  29  42 NW6       30.01R
ORANGE*        CLEAR     46  32  57 CALM      30.03R
LOUISA*        CLEAR     45  32  61 CALM      30.01R
FARMVILLE*     CLEAR     52  28  40 N3        29.99R
SOUTH HILL*    CLEAR     50  36  57 CALM      30.04S
ROANOKE RAPIDS CLEAR     54  36  50 N5        29.99R
RALEIGH        CLEAR     56  31  38 NE5       29.99R
$$

VAZ088>098-240500-
SOUTHEAST VIRGINIA

CITY           SKY/WX    TMP DP  RH WIND       PRES   REMARKS
NORFOLK        CLEAR     56  36  47 N12       29.95R
VIRGINIA BEACH CLEAR     56  36  47 N14G25    29.95R
NORFOLK NAVAL  CLEAR     56  34  43 N13       29.98R
WEST POINT*    CLEAR     54  31  41 NW8       29.99R
NEWPORT NEWS   CLEAR     57  33  40 N13G23    29.97R
LANGLEY AFB    CLEAR     54  33  43 N16G24    29.97R
FORT EUSTIS    CLEAR     55  37  50 N10G18    29.96R
WILLIAMSBURG*  CLEAR     54  36  50 N5        29.99R
FRANKLIN*      CLEAR     54  36  50 CALM      29.98R
WAKEFIELD      CLEAR     54  33  45 N5        29.98R
$$

VAZ020-022-025-037-045-240500-
WESTERN AND SOUTHWEST VIRGINIA

CITY           SKY/WX    TMP DP  RH WIND       PRES   REMARKS
STAUNTON*      CLEAR     40  29  66 CALM      30.04R
HOT SPRINGS VA CLEAR     37  27  65 NW14G21   30.05R
LYNCHBURG      CLEAR     56  29  35 N3        30.02R
DANVILLE       CLEAR     54  32  43 N7        30.00R
MARTINSVILLE     N/A     46  33  60 CALM      30.05R
ROANOKE        CLEAR     53  28  38 N20       30.04R
BLACKSBURG     CLEAR     48  34  57 NW6       30.06R
DUBLIN*        CLEAR     47  29  49 CALM      30.06R
MARION*        CLEAR     45  25  45 W6        30.08R
HILLSVILLE*    CLEAR     48  18  29 NW8       30.06R
RICHLANDS*     CLEAR     50  25  37 CALM      30.06S
WISE*          CLEAR     46  23  39 N6        30.07F
ABINGDON*      CLEAR     47  28  48 CALM      30.06S
$$

MDZ021>025-VAZ099-100-240500-
SOUTHERN MARYLAND AND THE DELMARVA PENINSULA

CITY           SKY/WX    TMP DP  RH WIND       PRES   REMARKS
PATUXENT RIVER CLEAR     50  30  46 N16       29.98R
BAY BRIDGE APT CLEAR     48  32  53 NW12      29.98R
LEONARDTOWN    CLEAR     48  30  49 NW7G16    29.99S
DOVER          CLEAR     46  30  53 NW14      29.90R
GEORGETOWN     CLEAR     48  29  47 NW10G20   29.94R
EASTON         CLEAR     49  34  56 N10G18    30.00S
CAMBRIDGE      CLEAR     52  32  46 NW13G28   29.97R
SALISBURY      CLEAR     50  30  46 NW18G24   29.95R
OCEAN CITY     CLEAR     49  31  49 NW16G30   29.93R
WALLOPS ISLAND CLEAR     52  34  50 N15G25    29.94R
ACCOMACK*      PTCLDY    52  32  46 NW18G32   29.95R
$$

NCZ012>017-030>032-240500-
EASTERN NORTH CAROLINA

CITY           SKY/WX    TMP DP  RH WIND       PRES   REMARKS
ELIZABETH CITY CLEAR     52  38  58 NW6       29.96R
AHOSKIE*       CLEAR     47  38  70 CALM      29.98R
EDENTON*       CLEAR     48  41  74 CALM      29.97R
CURRITUCK*     CLEAR     54  35  47 NW6       29.96R
KILL DEVIL HLS CLEAR     54  40  59 N6        29.94R
MANTEO         CLEAR     55  41  60 CALM      29.96R
CAPE HATTERAS  CLEAR     46  40  79 NE3       29.96R
GOLDSBORO      CLEAR     58  36  43 N6        29.95R
WASHINGTON     CLEAR     53  41  63 N5        29.97R
GREENVILLE     CLEAR     50  39  66 N3        29.99R
NEW BERN       CLEAR     52  42  69 N5        29.96R
WILMINGTON     CLEAR     53  44  71 CALM      29.95R
$$

VAZ048-240500-
ELSEWHERE

CITY           SKY/WX    TMP DP  RH WIND       PRES   REMARKS
HARRISBURG PA  CLEAR     46  28  49 NW14      29.95S
BALTIMORE      CLEAR     43  30  60 W6        29.97S
ANNAPOLIS      CLEAR     49  33  54 NW8       29.98R
ANDREWS AFB    CLEAR     48  30  49 NW13      29.99R
WILMINGTON DE  CLEAR     44  30  57 NW9       29.95R
PHILADELPHIA   CLEAR     47  24  40 NW17G24   29.95R
WILDWOOD NJ*   CLEAR     48  30  49 NW14G25   29.92R
ATLANTIC CITY  CLEAR     45  25  45 NW23G33   29.89R
HENDERSON NC   CLEAR     52  32  47 N3        30.00R
GREENSBORO     CLEAR     55  28  35 N5        30.00R
ROCKY MOUNT    CLEAR     51  36  56 N6        29.98R
FAYETTEVILLE   CLEAR     58  33  39 N6        29.96R
CHARLOTTE      CLEAR     60  26  27 NE6       29.99R
$$

VAZ100-240500-
MARINE

STATION/POSITION TIME  TEMP    WIND        PRES    WAVE   SWELL
                       AIR SEA DIR/SP/G            HT/PER HT/PER
                 (UTC) (F)     (DEG/KT/KT) (MB)    (FT/S) (FT/S)
44066 TX TWR #4  0400   45 45  310/ 27/ 31 1007.5R  10/ 7
CAPE MAY NJ      0400   50 59  330/ 18/ 30 1012.4R
LEWES DE         0400   50 53  320/ 28/ 32 1012.4R
15NM E FENWICK I 0400   49 47              1012.3R   5/ 5
OCEAN-CITY-INLET 0400   50 53  340/ 20/ 30 1012.7R
WACHAPREAGUE VA  0400   53 60  310/  5/ 16 1013.3R
THOMAS POINT MD  0400   49 53  310/ 13/ 15 1015.6R
GOOSES REEF MD   0400   51     350/ 17/ 21   N/A
COVE POINT MD    0400   51     350/ 26/ 28 1014.8F
SOLOMONS ISLAND  0400      56                N/A
BISHOPS HEAD MD  0400   50 57  330/ 15/ 20 1014.8R
PINEY POINT MD   0400          360/ 18/ 19   N/A
POTOMAC MD       0400   52     360/ 16/ 19 1014.6R
CAMBRIDGE MD     0400   51 57  330/ 18/ 24 1014.2R
LEWISETTA VA     0400   53 58  350/ 15/ 21 1015.1R
RAPPAHANNOCK LGT 0400          330/ 28/ 31 1014.4R
STINGRAY PT      0400   54     340/ 17/ 21 1014.5R
YORK RVR RNG VA  0400   56     350/ 24/ 29 1013.7R
YORKTOWN VA      0400   56 57  320/ 13/ 16 1014.6R
JAMESTOWN VA     0400   56     360/ 10/ 16   N/A
DOMINION TERM VA 0400   58     320/  4/ 15 1014.1F
KIPTOPEKE VA     0400      56  350/ 19/ 26   N/A
CHES BAY BRIDGE  0400   56 54  320/ 16/ 19 1014.1R
CAPE HENRY VA    0400   56     340/ 18/ 20   N/A
CHESAPEAKE LGHT  0300   54     340/ 24/ 26 1013.7R
WILLOUBY STN VA  0400   56     340/ 16/ 23 1013.4R
S CRANEY ISL VA  0400          320/ 13/ 20 1014.1R
CAPE HENRY BUOY  0400      48                N/A     3/ 4
1ST LANDING BUOY 0400      49                N/A     3/ 3   2/ 9
64NM E OF VA BCH 0400   53 49  330/ 19/ 23 1012.5R   4/ 5   2/ 9
DUCK PIER NC     0400   54 51  350/  9/ 10 1013.0R
44100 DUCK FRF   0400      49                N/A     3/ 5
44056 DUCK FRF   0400      50                N/A     3/ 5   2/15
OREGON INLET NC  0400   52 54  330/  4/  5 1014.1R
HATTERAS NC      0400   55 62   60/  3/  5 1014.4S
DIAMOND SHLS NC  0400   62 75  360/ 12/ 16 1013.9R   4/ 9   3/ 9
CAPE LOOKOUT NC  0300   62      30/  4/  4 1013.2R
FRYING PAN SHLS  0400   67 68   50/  6/  8 1013.9R   2/ 9   2/ 9
$$



USA.gov is the U.S. government's official web portal to all federal, state and local government web resources and services.